• In Hungary
  • List of Countries
  • For 7 days
  • Water Temperature
  • Satellite Maps
  • Weather Map
  • News
  • Weather Widgets
  • user-avatar
    Login

    Hourly Weather Myslakowice

    Today, 20 August, Monday

    Time Temperature Precipitation Wind Pressure Humidity
    00:00 +21°C° 0 mm 2 mps 729 mmHg 67%
    01:00 +21°C° 0 mm 2 mps 729 mmHg 63%
    02:00 +21°C° 0.1 mm 2 mps 729 mmHg 64%
    03:00 +21°C° 0.1 mm 2 mps 729 mmHg 65%
    04:00 +21°C° 0.1 mm 1 mps 728 mmHg 67%
    05:00 +21°C° 0 mm 2 mps 729 mmHg 65%
    06:00 +23°C° 0 mm 2 mps 729 mmHg 64%
    07:00 +24°C° 0 mm 2 mps 729 mmHg 62%
    08:00 +25°C° 0 mm 2 mps 729 mmHg 57%
    09:00 +27°C° 0 mm 2 mps 729 mmHg 52%
    10:00 +28°C° 0 mm 3 mps 730 mmHg 47%
    11:00 +29°C° 0 mm 3 mps 730 mmHg 44%
    12:00 +29°C° 0 mm 3 mps 730 mmHg 42%
    13:00 +30°C° 0 mm 4 mps 730 mmHg 39%
    14:00 +30°C° 0 mm 4 mps 729 mmHg 41%
    15:00 +29°C° 0 mm 4 mps 729 mmHg 43%
    16:00 +29°C° 0 mm 4 mps 729 mmHg 46%
    17:00 +27°C° 0 mm 4 mps 729 mmHg 53%
    18:00 +25°C° 0 mm 4 mps 729 mmHg 61%
    19:00 +22°C° 0 mm 3 mps 729 mmHg 68%
    20:00 +21°C° 0 mm 3 mps 729 mmHg 72%
    21:00 +19°C° 0 mm 2 mps 730 mmHg 76%
    22:00 +18°C° 0 mm 2 mps 730 mmHg 81%
    23:00 +18°C° 0 mm 2 mps 730 mmHg 81%

    Tomorrow, 21 August, Tuesday

    Time Temperature Precipitation Wind Pressure Humidity
    00:00 +18°C° 0 mm 2 mps 730 mmHg 82%
    01:00 +19°C° 0 mm 1 mps 731 mmHg 83%
    02:00 +18°C° 0 mm 1 mps 731 mmHg 84%
    03:00 +18°C° 0 mm 1 mps 731 mmHg 86%
    04:00 +16°C° 0 mm 1 mps 731 mmHg 87%
    05:00 +17°C° 0 mm 2 mps 731 mmHg 84%
    06:00 +18°C° 0 mm 2 mps 731 mmHg 81%
    07:00 +19°C° 0 mm 2 mps 732 mmHg 77%
    08:00 +20°C° 0.1 mm 2 mps 732 mmHg 73%
    09:00 +21°C° 0.1 mm 2 mps 732 mmHg 68%
    10:00 +23°C° 0.1 mm 2 mps 733 mmHg 63%
    11:00 +23°C° 0.1 mm 2 mps 732 mmHg 62%
    12:00 +23°C° 0.1 mm 2 mps 732 mmHg 60%
    13:00 +24°C° 0.1 mm 2 mps 732 mmHg 59%
    14:00 +24°C° 0 mm 2 mps 732 mmHg 58%
    15:00 +24°C° 0 mm 2 mps 732 mmHg 57%
    16:00 +24°C° 0 mm 2 mps 732 mmHg 57%
    17:00 +23°C° 0 mm 2 mps 731 mmHg 61%
    18:00 +21°C° 0 mm 1 mps 731 mmHg 65%
    19:00 +20°C° 0 mm 1 mps 731 mmHg 70%
    20:00 +19°C° 0 mm 1 mps 731 mmHg 72%
    21:00 +18°C° 0 mm 1 mps 732 mmHg 74%
    22:00 +18°C° 0 mm 1 mps 732 mmHg 76%
    23:00 +16°C° 0 mm 1 mps 732 mmHg 77%

    Day after tomorrow, 22 August, Wednesday

    Time Temperature Precipitation Wind Pressure Humidity
    00:00 +16°C° 0 mm 1 mps 732 mmHg 79%
    01:00 +16°C° 0 mm 1 mps 732 mmHg 80%
    02:00 +15°C° 0 mm 1 mps 732 mmHg 81%
    03:00 +15°C° 0 mm 1 mps 732 mmHg 82%
    04:00 +15°C° 0 mm 1 mps 731 mmHg 83%
    05:00 +16°C° 0 mm 1 mps 732 mmHg 79%
    06:00 +18°C° 0 mm 1 mps 732 mmHg 74%
    07:00 +20°C° 0 mm 1 mps 732 mmHg 69%
    08:00 +21°C° 0 mm 1 mps 732 mmHg 63%
    09:00 +23°C° 0 mm 1 mps 732 mmHg 57%
    10:00 +25°C° 0 mm 2 mps 732 mmHg 51%
    11:00 +26°C° 0 mm 2 mps 732 mmHg 48%
    12:00 +27°C° 0 mm 2 mps 732 mmHg 46%
    13:00 +27°C° 0 mm 2 mps 731 mmHg 44%
    14:00 +27°C° 0 mm 1 mps 731 mmHg 44%
    15:00 +27°C° 0 mm 1 mps 731 mmHg 45%
    16:00 +27°C° 0 mm 1 mps 730 mmHg 46%
    17:00 +26°C° 0 mm 1 mps 730 mmHg 51%
    18:00 +24°C° 0 mm 1 mps 730 mmHg 57%
    19:00 +22°C° 0 mm 1 mps 730 mmHg 63%
    20:00 +22°C° 0 mm 1 mps 730 mmHg 66%
    21:00 +21°C° 0 mm 1 mps 730 mmHg 69%
    22:00 +19°C° 0 mm 2 mps 730 mmHg 71%
    23:00 +19°C° 0 mm 2 mps 729 mmHg 72%

    23 August, Thursday

    Time Temperature Precipitation Wind Pressure Humidity
    00:00 +19°C° 0 mm 2 mps 729 mmHg 73%
    01:00 +18°C° 0 mm 2 mps 729 mmHg 73%
    02:00 +18°C° 0 mm 2 mps 729 mmHg 73%
    03:00 +18°C° 0 mm 2 mps 729 mmHg 73%
    04:00 +18°C° 0 mm 2 mps 728 mmHg 74%
    05:00 +19°C° 0 mm 2 mps 728 mmHg 70%
    06:00 +20°C° 0 mm 2 mps 728 mmHg 67%
    07:00 +23°C° 0 mm 2 mps 728 mmHg 63%
    08:00 +24°C° 0 mm 2 mps 728 mmHg 58%
    09:00 +26°C° 0 mm 2 mps 728 mmHg 52%
    10:00 +28°C° 0 mm 2 mps 728 mmHg 46%
    11:00 +29°C° 0 mm 2 mps 728 mmHg 44%
    12:00 +30°C° 0 mm 2 mps 728 mmHg 42%
    13:00 +30°C° 0 mm 2 mps 727 mmHg 40%
    14:00 +30°C° 0 mm 2 mps 727 mmHg 41%
    15:00 +30°C° 0 mm 2 mps 727 mmHg 42%
    16:00 +30°C° 0 mm 2 mps 727 mmHg 43%
    17:00 +28°C° 0.2 mm 2 mps 726 mmHg 49%
    18:00 +27°C° 0.2 mm 2 mps 726 mmHg 55%
    19:00 +25°C° 0.2 mm 2 mps 726 mmHg 60%
    20:00 +24°C° 0.5 mm 2 mps 726 mmHg 67%
    21:00 +23°C° 0.5 mm 2 mps 725 mmHg 73%
    22:00 +20°C° 0.5 mm 2 mps 725 mmHg 79%
    23:00 +20°C° 0.1 mm 2 mps 725 mmHg 81%

    24 August, Friday

    Time Temperature Precipitation Wind Pressure Humidity
    00:00 +19°C° 0.1 mm 2 mps 725 mmHg 82%
    01:00 +19°C° 0.1 mm 2 mps 725 mmHg 84%
    02:00 +19°C° 0 mm 2 mps 724 mmHg 84%
    03:00 +18°C° 0 mm 2 mps 724 mmHg 85%
    04:00 +18°C° 0 mm 2 mps 724 mmHg 86%
    05:00 +19°C° 0 mm 2 mps 724 mmHg 83%
    06:00 +20°C° 0 mm 2 mps 725 mmHg 81%
    07:00 +21°C° 0 mm 2 mps 725 mmHg 78%
    08:00 +23°C° 0.5 mm 2 mps 725 mmHg 74%
    09:00 +24°C° 0.5 mm 3 mps 725 mmHg 71%
    10:00 +25°C° 0.5 mm 3 mps 725 mmHg 67%
    11:00 +24°C° 1.5 mm 3 mps 725 mmHg 69%
    12:00 +24°C° 1.5 mm 3 mps 725 mmHg 71%
    13:00 +22°C° 1.5 mm 3 mps 725 mmHg 74%
    14:00 +22°C° 0.6 mm 3 mps 725 mmHg 71%
    15:00 +22°C° 0.6 mm 3 mps 725 mmHg 69%
    16:00 +24°C° 0.6 mm 2 mps 725 mmHg 66%
    17:00 +21°C° 0.8 mm 2 mps 725 mmHg 70%
    18:00 +20°C° 0.8 mm 2 mps 725 mmHg 74%
    19:00 +20°C° 0.8 mm 1 mps 724 mmHg 77%
    20:00 +19°C° 0.1 mm 1 mps 725 mmHg 77%
    21:00 +19°C° 0.1 mm 1 mps 725 mmHg 78%
    22:00 +18°C° 0.1 mm 1 mps 725 mmHg 78%
    23:00 +17°C° 0.1 mm 2 mps 725 mmHg 78%

    25 August, Saturday

    Time Temperature Precipitation Wind Pressure Humidity
    00:00 +16°C° 0.1 mm 2 mps 725 mmHg 78%
    01:00 +16°C° 0.1 mm 3 mps 725 mmHg 78%
    02:00 +14°C° 0.4 mm 3 mps 725 mmHg 82%
    03:00 +14°C° 0.4 mm 3 mps 726 mmHg 85%
    04:00 +13°C° 0.4 mm 3 mps 726 mmHg 88%
    05:00 +13°C° 0.3 mm 3 mps 726 mmHg 88%
    06:00 +13°C° 0.3 mm 3 mps 727 mmHg 88%
    07:00 +13°C° 0.3 mm 3 mps 727 mmHg 88%
    08:00 +13°C° 0.2 mm 3 mps 727 mmHg 84%
    09:00 +13°C° 0.2 mm 3 mps 727 mmHg 80%
    10:00 +14°C° 0.2 mm 3 mps 728 mmHg 75%
    11:00 +16°C° 0.1 mm 3 mps 728 mmHg 67%
    12:00 +17°C° 0.1 mm 3 mps 728 mmHg 58%
    13:00 +19°C° 0.1 mm 3 mps 728 mmHg 49%
    14:00 +19°C° 0 mm 3 mps 727 mmHg 48%
    15:00 +18°C° 0 mm 2 mps 727 mmHg 47%
    16:00 +18°C° 0 mm 2 mps 727 mmHg 46%
    17:00 +17°C° 0 mm 2 mps 727 mmHg 51%
    18:00 +15°C° 0 mm 1 mps 727 mmHg 55%
    19:00 +14°C° 0 mm 1 mps 727 mmHg 59%
    20:00 +14°C° 0 mm 1 mps 727 mmHg 61%
    21:00 +13°C° 0 mm 1 mps 727 mmHg 62%
    22:00 +13°C° 0 mm 1 mps 727 mmHg 63%
    23:00 +12°C° 0 mm 1 mps 727 mmHg 63%
    Show more